Home   Weather   San Diego   Past weeks
Flag for USA

Past Weather in San Diego, California, USA — Yesterday and Last 2 Weeks

Now
66 °F

Passing clouds.


Feels Like: 66 °F
Forecast: 68 / 57 °F
Wind: 16 mph from Northwest

Location: San Diego - North Island

Current Time: Mar 30, 2020 at 1:55:59 pm

Latest Report: Mar 30, 2020 at 12:52 pm


Visibility: 10 mi

Pressure: 30.19 "Hg

Humidity: 59%

Dew Point: 51 °F

Location of San DiegoLocation

Past Weather in San Diego — Graph

°F

San Diego Temperature Yesterday

Maximum temperature yesterday: 65 °F (at 2:52 pm)
Minimum temperature yesterday: 50 °F (at 6:52 am)
Average temperature yesterday: 58 °F

High & Low Weather Summary for the Past Weeks

 TemperatureHumidityPressure
High66 °F (Mar 30, 11:52 am)90% (Mar 16, 11:11 pm)30.23 "Hg (Mar 16, 11:11 pm)
Low47 °F (Mar 27, 6:52 am)41% (Mar 26, 1:52 pm)29.74 "Hg (Mar 18, 2:11 pm)
Average58 °F68%30.08 "Hg
* Reported Mar 15 11:52 am — Mar 30 11:52 am, San Diego. Weather by CustomWeather, © 2020

Note: Actual official high and low records may vary slightly from our data, if they occured in-between our weather recording intervals... More about our weather records

San Diego Weather History for the Previous 24 Hours

Scroll right to see more
 ConditionsComfort  
Time TempWeatherWind HumidityBarometerVisibility
11:52 am
Mon, Mar 30
66 °FPassing clouds.12 mph56%30.22 "Hg10 mi
10:52 am65 °FPassing clouds.7 mph61%30.23 "Hg10 mi
9:52 am64 °FPassing clouds.5 mph56%30.22 "Hg10 mi
8:52 am60 °FPassing clouds.6 mph69%30.23 "Hg10 mi
7:52 am58 °FBroken clouds.No wind72%30.21 "Hg10 mi
6:52 am55 °FBroken clouds.3 mph77%30.19 "Hg10 mi
5:52 am56 °FPassing clouds.No wind77%30.17 "Hg10 mi
4:52 am54 °FPassing clouds.No wind86%30.16 "Hg10 mi
3:52 am58 °FPassing clouds.No wind75%30.15 "Hg10 mi
3:04 am58 °FPartly cloudy.3 mph75%30.15 "Hg10 mi
2:04 am59 °FPassing clouds.No wind75%30.16 "Hg10 mi
1:52 am58 °FPassing clouds.No wind78%30.16 "Hg10 mi
1:08 am59 °FMostly cloudy.No wind72%30.15 "Hg10 mi
12:40 am59 °FMostly cloudy.5 mph72%30.16 "Hg10 mi
12:18 am60 °FMostly cloudy.No wind69%30.15 "Hg10 mi
11:52 pm
Sun, Mar 29
59 °FPassing clouds.No wind72%30.14 "Hg10 mi
11:40 pm59 °FPartly cloudy.No wind72%30.15 "Hg10 mi
10:59 pm60 °FMostly cloudy.6 mph69%30.15 "Hg10 mi
10:52 pm60 °FPassing clouds.7 mph69%30.14 "Hg10 mi
9:52 pm60 °FPassing clouds.9 mph72%30.14 "Hg10 mi
8:52 pm60 °FPassing clouds.12 mph72%30.12 "Hg10 mi
7:52 pm60 °FPassing clouds.14 mph67%30.11 "Hg10 mi
6:52 pm61 °FScattered clouds.14 mph67%30.09 "Hg10 mi
5:52 pm62 °FPassing clouds.13 mph65%30.07 "Hg10 mi
4:52 pm63 °FPassing clouds.8 mph63%30.08 "Hg10 mi
3:52 pm63 °FPassing clouds.9 mph63%30.08 "Hg10 mi
2:52 pm65 °FScattered clouds.12 mph59%30.09 "Hg10 mi
1:52 pm64 °FScattered clouds.13 mph61%30.10 "Hg10 mi
Weather by CustomWeather, © 2020

See weather overview

Advertising